Weather History for KHOP - November, 2012

Change the Weather History Date:

Thursday, November 15, 2012

  Actual Average Record
Temperature  
Mean Temperature 40 °F -  
Max Temperature 52 °F 56 °F 73 °F (2005)
Min Temperature 27 °F 37 °F 21 °F (2014)
Degree Days  
Heating Degree Days 26    
Moisture  
Dew Point 30 °F    
Average Humidity 71    
Maximum Humidity 99    
Minimum Humidity 40    
Precipitation  
Precipitation 0.00 in - - ()
Sea Level Pressure  
Sea Level Pressure 30.35 in    
Wind  
Wind Speed 2 mph (NE)    
Max Wind Speed 8 mph    
Max Gust Speed -    
Visibility 10 miles    
Events      
Averages and records for this station are not official NWS values.
T = Trace of Precipitation, MM = Missing Value Source: NWS Daily Summary

Daily Weather History Graph

Daily Weather History Graph

Search for Another Location

Airport or City:

Trip Planner

Search our weather history database for the weather conditions in past years. The results will help you decide how hot, cold, wet, or windy it might be!

Date:

Astronomy

Nov. 15, 2012 Rise Set
Actual Time 6:28 AM CST 4:40 PM CST
Civil Twilight 6:00 AM CST 5:08 PM CST
Nautical Twilight 5:29 AM CST 5:39 PM CST
Astronomical Twilight 4:58 AM CST 6:10 PM CST
Moon 8:21 AM CST (11/15) 6:33 PM CST (11/15)
Length of Visible Light 11h 07m
Length of Day
10h 12m
Waxing Crescent, 5% of the Moon is Illuminated
Nov 15
Waxing Crescent
Nov 20
First Quarter
Nov 28
Full
Dec 6
Last Quarter
Dec 13
New

Hourly Weather History & Observations

Time (CST) Temp. Windchill Dew Point Humidity Pressure Visibility Wind Dir Wind Speed Gust Speed Precip Events Conditions
12:55 AM 29.1 °F - 27.5 °F 94% 30.32 in 10.0 mi Calm Calm - N/A   Clear
1:55 AM 33.1 °F 28.7 °F 29.1 °F 85% 30.33 in 10.0 mi North 4.6 mph - N/A   Clear
2:55 AM 31.1 °F - 28.6 °F 90% 30.33 in 10.0 mi Calm Calm - N/A   Clear
3:55 AM 28.2 °F - 27.1 °F 96% 30.33 in 10.0 mi Calm Calm - N/A   Clear
4:55 AM 28.0 °F - 27.7 °F 99% 30.35 in 10.0 mi Calm Calm - N/A   Clear
5:55 AM 27.9 °F - 27.3 °F 98% 30.36 in 10.0 mi Calm Calm - N/A   Clear
6:55 AM 27.0 °F - 26.8 °F 99% 30.38 in 10.0 mi Calm Calm - N/A   Clear
7:55 AM 33.8 °F - 30.9 °F 89% 30.39 in 10.0 mi Calm Calm - N/A   Clear
8:55 AM 38.1 °F 35.7 °F 33.4 °F 83% 30.38 in 10.0 mi ENE 3.5 mph - N/A   Clear
9:55 AM 43.2 °F 40.5 °F 32.9 °F 67% 30.39 in 10.0 mi NE 4.6 mph - N/A   Clear
10:55 AM 47.1 °F - 32.0 °F 56% 30.38 in 10.0 mi Variable 4.6 mph - N/A   Clear
11:55 AM 49.5 °F - 31.8 °F 51% 30.35 in 10.0 mi NE 5.8 mph - N/A   Clear
12:55 PM 50.7 °F - 29.8 °F 45% 30.33 in 10.0 mi NE 6.9 mph - N/A   Clear
1:55 PM 52.5 °F - 29.7 °F 42% 30.32 in 10.0 mi NE 8.1 mph - N/A   Clear
2:55 PM 52.7 °F - 28.6 °F 40% 30.31 in 10.0 mi Variable 3.5 mph - N/A   Clear
3:55 PM 50.9 °F - 30.6 °F 46% 30.31 in 10.0 mi Calm Calm - N/A   Clear
4:55 PM 48.7 °F - 30.0 °F 48% 30.32 in 10.0 mi Calm Calm - N/A   Clear
5:55 PM 46.4 °F 45.2 °F 29.5 °F 52% 30.34 in 10.0 mi Variable 3.5 mph - N/A   Clear
6:55 PM 44.2 °F - 30.7 °F 59% 30.35 in 10.0 mi Calm Calm - N/A   Clear
7:55 PM 41.0 °F - 30.7 °F 67% 30.35 in 10.0 mi Calm Calm - N/A   Clear
8:55 PM 39.4 °F - 30.0 °F 69% 30.36 in 10.0 mi Calm Calm - N/A   Clear
9:55 PM 38.7 °F - 30.4 °F 72% 30.37 in 10.0 mi Calm Calm - N/A   Clear
10:55 PM 38.3 °F - 30.9 °F 75% 30.37 in 10.0 mi Calm Calm - N/A   Clear
11:55 PM 36.0 °F - 31.1 °F 82% 30.37 in 10.0 mi Calm Calm - N/A   Clear